Tracking 22019 objects as of 2-Dec-2020
HD Live streaming from Space Station
objects crossing your sky now

IRIDIUM 33 DEB

Track IRIDIUM 33 DEB now!
10-day predictions


NORAD ID: 34148
Int'l Code: 1997-051EB
Perigee: 378.7 km
Apogee: 386.3 km
Inclination: 86.4 °
Period: 92.1 minutes
Semi major axis: 6753 km
RCS: 0.051 m2 (small)
Launch date: September 14, 1997
Source: United States (US)
Launch site: TYURATAM MISSILE AND SPACE COMPLEX (TTMTR)

Note: This is SATELLITE DEBRIS
aabbcc
Your satellite tracking list
Your tracking list is empty




NASA's NSSDC Master Catalog

Two Line Element Set (TLE):
1 34148U 97051EB  20336.36933846  .00919176  00000-0  87982-2 0  9997
2 34148  86.3531  14.1127 0005652 102.9820 257.2079 15.64260122632769
Source of the keplerian elements: AFSPC